Location: Sternwarte_Laufen
(47.9344°N, 12.9346°E)
Time: 06:47:53
(UTC+01:00)

BlueWalker 3 - Pass Details

Date: 07 February 2023
Orbit: 497 x 515 km, 53.2° (Epoch: 23 March)

Event Time Altitude Azimuth Distance (km) Brightness Sun altitude
Rises 18:16:42 0° 293° (WNW) 2,601 6.6 -10.3°
Reaches altitude 10° 18:18:58 10° 300° (WNW) 1,719 5.4 -10.7°
Maximum altitude 18:22:42 44° 13° (NNE) 706 2.5 -11.3°
Enters shadow 18:25:18 18° 80° (E) 1,298 3.4 -11.7°
